sat.trackr.live / text

‹ back to catalog

STARLINK-5840

NORAD 57231 · 2023-094P

PAYLOAD ACTIVE UNKNOWN

§ Identity

Operator
Country
US
Launch date
2023-07-07
Launch site
AFWTR
Launch vehicle
Mass (kg)
RCS (m²)

Purposes: comms

External: N2YO · Heavens-Above · Gunter

§ Orbital elements

Epoch: 2026-09-20T17:42:57.475872Z

Period
94.27 min
Inclination
43.0046°
Eccentricity
0.0000737
Mean motion
15.27574418 rev/d
Perigee alt
482.6 km
Apogee alt
483.6 km
Semi-major
6,861.2 km
B*
-1.7425e-5
RAAN
9.3549°
Arg perigee
280.4740°
Mean anomaly
79.6028°
Rev number
17,694

§ Raw data

STARLINK-58401 57231U 23094P   26263.73816523 -.00000741  00000+0 -17425-4 0  99962 57231  43.0046   9.3549 0000737 280.4740  79.6028 15.27574418176942

JSON: /api/v1/satellites/57231 · /tle

For live sub-satellite position, see the globe view (requires WebGL).

§ Visibility from observer

Set your observer location to see the next 7 days of passes ≥ 10°. The values pass through the URL so the page stays shareable.

No JS? Fill the form by hand. The geolocation button needs JavaScript.